PIESAT-2 12

导读

PIESAT-2 12是由中国于2024年12月16日08:00发射的卫星,属于PIESAT-2系列。作为中国自主研制的航天发射任务成果,该卫星进入预定轨道后,将服务相关领域应用需求,推动空间观测或技术试验等航天领域发展,是中国航天事业持续推进卫星组网与技术探索的又一次实践,展现中国在航天发射领域的稳步发展。

基本信息
目录编号:
62336
目录名称:
PIESAT-2 12
国际标识:
2024-241D
轨道中心:
EARTH
卫星名称:
PIESAT-2 12
卫星全名:
PIESAT-2 12
卫星状态:
在轨 (已飞行628 天)
发射日期:
2024-12-16 UTC
国别 :
中国 (CN)
星等 :
--
轨道信息
数据来源 国际轨道数据 AOE轨道数据
星历时间 2026-09-05T14:29:08+0800
12小时前
查看轨道信息
2026-09-02T05:00:00+0800
3天前
查看轨道信息
半长轴 6898.615km 6898.708km
偏心率 0.000199 0.000206
轨道倾角 97.528° 97.527°
近地点辐角 68.231° 66.781°
升交点赤经 194.907° 191.545°
平近点角 291.913° 145.699°
近地点 519.105km 519.149km
远地点 521.851km 521.993km
周期 95.039分钟 95.041分钟
每日圈数 15.15165 15.151344
详细信息
使用方式:
暂无
2D轨道图
3D轨道图
轨道高度分析图
轨道倾角分析图
轨道综合分析图
查看轨道综合分析图
交会数据列表
事件ID 空间交会对象 最接近时刻(TCA) 交会距离 交会风险概率(CRP) 交会风险指数(CRI) 操作
CDM_260905-224104-376206-233625
STPSAT-5 (43762)
2026-09-05T
22:41:31+0000
2.524 km
极远距离
1.497126E-6 低风险 0.39